AirNav   Air Wisconsin pilot careers
 
 638 users online  

U08 Perkins Field Airport
Overton, Nevada, USA

GOING TO OVERTON?


FAA INFORMATION EFFECTIVE 11 OCTOBER 2018

Location

FAA Identifier: U08
Lat/Long: 36-34-05.2000N / 114-26-36.0000W
36-34.086667N / 114-26.600000W
36.5681111 / -114.4433333
(estimated)
Elevation: 1365.9 ft. / 416.3 m (surveyed)
Variation: 14E (1985)
From city: 2 miles N of OVERTON, NV
Time zone: UTC -7 (UTC -8 during Standard Time)
Zip code: 89021

Airport Operations

Airport use: Open to the public
Activation date: 06/1948
Control tower: no
ARTCC: LOS ANGELES CENTER
FSS: RENO FLIGHT SERVICE STATION
NOTAMs facility: RNO (NOTAM-D service available)
Attendance: THUR-MON DAYLIGHT HOURS
TUE & WED SVC AVBL ON CALL (702) 397-8457.
Pattern altitude: 2165.9 ft. MSL
Wind indicator: lighted
Segmented circle: yes
Lights: ACTVT MIRLS RY 13/31 - CTAF.
Beacon: white-green (lighted land airport)
Operates sunset to sunrise.

Airport Communications

CTAF/UNICOM: 122.8

Nearby radio navigation aids

VOR radial/distance  VOR name  Freq  Var
MMMr197/14.5MORMON MESA VORTAC114.3016E
BLDr016/39.9BOULDER CITY VORTAC116.7015E

Airport Services

Fuel available: 100
Oil available: ONLY ENOUGH OIL FOR ENG NEED, NO EXTRA SALES AVAILABLE.
Parking: tiedowns
Airframe service: NONE
Powerplant service: NONE
Bottled oxygen: NONE
Bulk oxygen: NONE

Runway Information

Runway 13/31

Dimensions: 4811 x 75 ft. / 1466 x 23 m
Surface: asphalt, in good condition
Weight bearing capacity: 
Single wheel: 30.0
Runway edge lights: medium intensity
Gradient: NW
RUNWAY 13  RUNWAY 31
Latitude: 36-34.431133N36-33.741918N
Longitude: 114-26.842670W114-26.356943W
Elevation: 1365.9 ft.1348.8 ft.
Gradient: 0.4%0.4% UP
Traffic pattern: leftright
Markings: nonprecision, in fair conditionnonprecision, in fair condition
Runway end identifier lights: nono
Touchdown point: yes, no lightsyes, no lights
Obstructions: 4 ft. fence, 380 ft. from runway, 45:1 slope to clear15 ft. road, 360 ft. from runway, 10:1 slope to clear

Airport Ownership and Management from official FAA records

Ownership: Publicly-owned
Owner: CLARK COUNTY
PO BOX 11005
LAS VEGAS, NV 89111-1005
Phone (702) 261-5100
Manager: BEN CZYZEWSKI
2730 AIRPORT DRIVE STE. 101
NORTH LAS VEGAS, NV 89032
Phone 702-261-3802

Airport Operational Statistics

Aircraft based on the field: 12
Single engine airplanes: 10
Multi engine airplanes: 1
Ultralights: 1
    
Aircraft operations: avg 20/day *
49% transient general aviation
49% local general aviation
2% military
* for 12-month period ending 31 July 2018

Additional Remarks

ULTRALIGHT AND SKYDIVING ACTIVITY ONGOING ON OR NEAR THE ARPT.

Instrument Procedures

There are no published instrument procedures at U08.

Some nearby airports with instrument procedures:

67L - Mesquite Airport (24 nm NE)
KLSV - Nellis Air Force Base (35 nm SW)
KVGT - North Las Vegas Airport (42 nm SW)
KBVU - Boulder City Municipal Airport (42 nm SW)
KLAS - Mc Carran International Airport (45 nm SW)
 
Loc | Ops | Rwys | IFR | FBO | Links
Com | Nav | Svcs | Stats | Notes


 
Area around U08 (Perkins Field Airport)
 
Road maps at: MapQuest Bing Google
 
Aerial photo
WARNING: Photo may not be current or correct
Aerial photo of U08 (Perkins Field Airport)
Photo courtesy of focalflight.com
Photo taken 09-Dec-2015
looking south.

Do you have a better or more recent aerial photo of Perkins Field Airport that you would like to share? If so, please send us your photo.

 
Sectional chart

 
Airport distance calculator
Flying to Perkins Field Airport? Find the distance to fly.

From to U08

Sunrise and sunset
Times for 17-Oct-2018
 Local
(UTC-7)
 Zulu
(UTC)
Morning civil twilight06:2213:22
Sunrise06:4813:48
Sunset17:5800:58
Evening civil twilight18:2401:24

Current date and time
Zulu (UTC)  17-Oct-2018 11:16:07
Local (UTC-7)  17-Oct-2018 04:16:07
 
METAR
KLSV 
35nm SW 
171059Z 17002KT 10SM SCT120 10/M09 A3014 RMK AO2A SLPNO ALSTG ESTMD T01021086 10149 20092 58003 $
KBVU 
42nm SW 
171055Z AUTO 36003KT 10SM SCT036 SCT046 BKN050 11/01 A3015 RMK AO2
KVGT 
43nm SW 
171053Z AUTO 32006KT 10SM CLR 11/M05 A3013 RMK AO2 SLP212 T01061050
KLAS 
45nm SW 
171056Z 00000KT 10SM FEW120 FEW150 13/M04 A3013 RMK AO2 SLP192 T01281044
KHND 
48nm SW 
171056Z AUTO 18006KT 10SM CLR 10/M01 A3016 RMK AO2 SLP205 T01001011 $
TAF
KLSV 
35nm SW 
170702Z 1707/1813 33007KT 9999 BKN120 QNH3007INS BECMG 1717/1718 05012KT 9999 SCT100 QNH3009INS BECMG 1802/1803 04009KT 9999 SKC QNH3005INS TX24/1723Z TN13/1712Z
KVGT 
43nm SW 
170520Z 1706/1806 33008KT P6SM BKN100 BKN200 FM171700 06010KT P6SM SCT100 BKN200 FM180300 02007KT P6SM FEW100 SCT200
NOTAMs
Click for the latest NOTAMs
NOTAMs are issued by the DoD/FAA and will open in a separate window not controlled by AirNav.

 

 
 

FBO, Fuel Providers, and Aircraft Ground Support

  
 Business Name 
 
 Contact 
 
 Services / Description 
 
Fuel Prices
 
Comments
  
Perkins Field 702-397-2716
[web site]
[email]
Airport management, Aviation fuel, Aircraft parking (ramp or tiedown)

More info about Perkins Field
100LL
SS $4.94 
 Updated 10-Oct-2018
 
   2 read write
SS=Self service
Update Fuel Prices
 

Would you like to see your business listed on this page?

 If your business provides an interesting product or service to pilots, flight crews, aircraft, or users of the Perkins Field Airport, you should consider listing it here.  To start the listing process, click on the button below
 
Add a business
 

Other Pages about Perkins Field Airport

Rhttp:/...
 
Update a link
 
Copyright © AirNav, LLC. All rights reserved. Privacy Policy  Contact